Regional Weather Roundup
Issued by NWS

Home | Current Version | Previous Version | Graphics & Text | Print | Product List | Glossary On
Versions: 1 2 3 4 5 6 7 8 9 10 11 12 13 14 15 16 17 18 19 20 21 22 23 24 25 26 27 28 29 30 31 32 33 34 35 36 37 38 39 40 41 42 43 44 45 46 47 48 49 50
000
ASUS45 KABQ 300510
RWRNM
NEW MEXICO REGIONAL WEATHER ROUNDUP
NATIONAL WEATHER SERVICE ALBUQUERQUE NM
1100 PM MDT SAT AUG 29 2015

NOTE: "FAIR" MEANS FEW OR NO CLOUDS BELOW 12,000 FEET AGL WITH NO
       SIGNIFICANT WEATHER OR OBSTRUCTIONS TO VISION.

      THIS PRODUCT IS RELEASED AS TWO VERSIONS.  ONE VERSION NEAR
      THE TOP OF THE HOUR CONTAINING PRELIMINARY DATA FROM ALBUQUERQUE
      AND OTHER STATIONS.  A FINAL VERSION WITH ADDITIONAL DATA IS
      ISSUED ABOUT 10 MINUTES AFTER THE HOUR.

NMZ501-503-504-510>518-300600-
NORTHWEST PLATEAU/NORTHCENTRAL MOUNTAINS

CITY           SKY/WX    TMP DP  RH WIND       PRES   REMARKS
FARMINGTON     PTCLDY    78  44  29 SE14G22   30.16S
LOS ALAMOS     PTCLDY    67  41  38 SW8       30.38S
SANTA FE       CLEAR     65  45  48 SE8       30.31R
TAOS           PTCLDY    61  37  41 E10       30.37F
ANGEL FIRE     FAIR      43  42  95 CALM      30.49S

$$
NMZ402-403-502-505>509-300600-
WESTCENTRAL MOUNTAINS/SOUTHWEST MOUNTAINS

CITY           SKY/WX    TMP DP  RH WIND       PRES   REMARKS
GALLUP         CLOUDY    68  48  48 SW7       30.29S
GRANTS         PTCLDY    66  49  55 SE3       30.34R
SILVER CITY      N/A     73  48  40 E20       30.25R

$$
NMZ407-409-411-412-300600-
SOUTHERN DESERTS

CITY           SKY/WX    TMP DP  RH WIND       PRES   REMARKS
DEMING         CLOUDY    78  56  46 E8        30.17R
LAS CRUCES     MOCLDY    77  54  45 E5        30.17R
HOLLOMAN AFB   PTCLDY    77  57  50 N7        30.13R
ALAMOGORDO     PTCLDY    73  57  56 N5        30.14F
T OR C         PTCLDY    78  50  37 W5        30.20R

$$
NMZ519>523-300600-
CENTRAL VALLEYS/CENTRAL HIGHLANDS

CITY           SKY/WX    TMP DP  RH WIND       PRES   REMARKS
ALBUQUERQUE    PTCLDY    75  47  36 E10       30.23R
DOUBLE EAGLE   CLEAR     65  46  51 S5        30.27S
MORIARTY ARPT  FAIR      58  48  67 CALM      30.33S
CLINES CORNERS CLEAR     60  52  74 S8        30.36F
BELEN          FAIR      74  50  43 SE9       30.22S
SOCORRO        FAIR      72  53  51 CALM      30.19S

$$
NMZ524>526-539-540-300600-
SOUTHCENTRAL MOUNTAINS

CITY           SKY/WX    TMP DP  RH WIND       PRES   REMARKS
RUIDOSO        CLEAR     59  54  82 MISG      30.38S

$$
NMZ527>531-300600-
NORTHEAST HIGHLANDS/NORTHEAST PLAINS

CITY           SKY/WX    TMP DP  RH WIND       PRES   REMARKS
LAS VEGAS      PTCLDY    60  47  61 NW3       30.37S
RATON          CLEAR     60  48  64 W7        30.32S
CLAYTON        CLEAR     62  48  60 S8        30.23F

$$
NMZ532>537-300600-
EASTCENTRAL PLAINS

CITY           SKY/WX    TMP DP  RH WIND       PRES   REMARKS
TUCUMCARI      CLEAR     66  56  70 CALM      30.17S
CANNON AFB     CLEAR     68  55  64 CALM      30.19F
CLOVIS AIRPORT CLEAR     64  57  77 CALM      30.21S

$$
NMZ028-029-538-300600-
SOUTHEAST PLAINS

CITY           SKY/WX    TMP DP  RH WIND       PRES   REMARKS
ROSWELL        CLEAR     69  59  70 CALM      30.15S
ARTESIA        CLEAR     72  66  83 SE9       30.15S
CARLSBAD       PTCLDY    75  53  46 SE6       30.12
HOBBS            N/A     64  59  82 CALM      30.17S


$$



USA.gov is the U.S. government's official web portal to all federal, state and local government web resources and services.